TimeCST,TemperatureF,Dew PointF,Humidity,Sea Level PressureIn,VisibilityMPH,Wind Direction,Wind SpeedMPH,Gust SpeedMPH,PrecipitationIn,Events,Conditions,WindDirDegrees,DateUTC
12:53 AM,26.1,12.9,58,30.32,10.0,Calm,Calm,-,N/A,,Overcast,0,2013-02-02 06:53:00
1:53 AM,26.1,15.1,63,30.30,10.0,Calm,Calm,-,N/A,,Overcast,0,2013-02-02 07:53:00
2:53 AM,27.0,15.1,61,30.28,10.0,South,3.5,-,N/A,,Overcast,170,2013-02-02 08:53:00
3:53 AM,28.0,15.1,58,30.26,10.0,Calm,Calm,-,N/A,,Overcast,0,2013-02-02 09:53:00
4:53 AM,28.0,16.0,61,30.24,10.0,Variable,4.6,-,N/A,,Overcast,0,2013-02-02 10:53:00
5:53 AM,28.9,16.0,58,30.22,10.0,SSW,5.8,-,N/A,,Mostly Cloudy,210,2013-02-02 11:53:00
6:53 AM,28.0,15.1,58,30.20,10.0,SSW,3.5,-,N/A,,Clear,210,2013-02-02 12:53:00
7:53 AM,30.0,17.1,59,30.19,10.0,SW,6.9,-,N/A,,Mostly Cloudy,220,2013-02-02 13:53:00
8:53 AM,32.0,19.0,59,30.19,10.0,SW,8.1,-,N/A,,Overcast,220,2013-02-02 14:53:00
9:53 AM,34.0,19.9,56,30.17,10.0,SW,10.4,-,N/A,,Mostly Cloudy,230,2013-02-02 15:53:00
10:53 AM,37.9,19.9,48,30.16,10.0,WSW,15.0,19.6,N/A,,Overcast,250,2013-02-02 16:53:00
11:53 AM,37.0,23.0,57,30.15,10.0,WSW,13.8,20.7,N/A,,Overcast,250,2013-02-02 17:53:00
12:53 PM,36.0,27.0,70,30.11,10.0,WSW,15.0,-,N/A,,Overcast,250,2013-02-02 18:53:00
1:12 PM,37.4,28.4,70,30.09,10.0,WSW,16.1,-,N/A,,Overcast,240,2013-02-02 19:12:00
1:26 PM,37.4,28.4,70,30.09,10.0,WSW,16.1,-,N/A,,Mostly Cloudy,240,2013-02-02 19:26:00
1:53 PM,39.0,28.9,67,30.10,10.0,WSW,13.8,-,N/A,,Clear,240,2013-02-02 19:53:00
2:53 PM,39.0,27.0,62,30.10,10.0,West,10.4,19.6,N/A,,Clear,260,2013-02-02 20:53:00
3:53 PM,41.0,27.0,57,30.10,10.0,West,9.2,-,N/A,,Clear,260,2013-02-02 21:53:00
4:53 PM,39.9,28.0,63,30.11,10.0,WSW,6.9,-,N/A,,Overcast,250,2013-02-02 22:53:00
5:53 PM,39.0,28.9,67,30.12,10.0,SW,5.8,-,N/A,,Overcast,230,2013-02-02 23:53:00
6:53 PM,39.0,30.0,70,30.13,10.0,SW,6.9,-,N/A,,Overcast,230,2013-02-03 00:53:00
7:53 PM,36.0,28.9,76,30.15,10.0,West,4.6,-,N/A,,Mostly Cloudy,270,2013-02-03 01:53:00
8:53 PM,34.0,28.0,79,30.14,10.0,WSW,6.9,-,N/A,,Clear,250,2013-02-03 02:53:00
9:53 PM,34.0,28.0,79,30.14,10.0,West,4.6,-,N/A,,Overcast,260,2013-02-03 03:53:00
10:53 PM,35.1,26.1,70,30.12,10.0,WSW,4.6,-,N/A,,Mostly Cloudy,240,2013-02-03 04:53:00
11:53 PM,34.0,26.1,73,30.10,10.0,SW,4.6,-,N/A,,Mostly Cloudy,220,2013-02-03 05:53:00